date,time,water_lv
2019-04-01,00:00:00,95.81
2019-04-01,00:10:00,95.82
2019-04-01,00:20:00,95.79
2019-04-01,00:30:00,96.05
2019-04-01,00:40:00,95.8
2019-04-01,00:50:00,95.83
2019-04-01,01:00:00,95.8
2019-04-01,01:10:00,95.79
2019-04-01,01:20:00,95.86
2019-04-01,01:30:00,95.97
2019-04-01,01:40:00,96.02
2019-04-01,01:50:00,95.99
2019-04-01,02:00:00,95.97
2019-04-01,02:10:00,95.83
2019-04-01,02:20:00,95.84
2019-04-01,02:30:00,95.89
2019-04-01,02:40:00,95.92
2019-04-01,02:50:00,95.91
2019-04-01,03:00:00,95.94
2019-04-01,03:10:00,95.94
2019-04-01,03:20:00,95.86
2019-04-01,03:30:00,95.87
2019-04-01,03:40:00,95.88
2019-04-01,03:50:00,95.91
2019-04-01,04:00:00,95.89
2019-04-01,04:10:00,95.89
2019-04-01,04:20:00,95.88
2019-04-01,04:30:00,96.06
2019-04-01,04:40:00,95.65
2019-04-01,04:50:00,96.03
2019-04-01,05:00:00,96.04
2019-04-01,05:10:00,95.66
2019-04-01,05:20:00,95.69
2019-04-01,05:30:00,95.69
2019-04-01,05:40:00,95.68
2019-04-01,05:50:00,95.92
2019-04-01,06:00:00,95.93
2019-04-01,06:10:00,95.96
2019-04-01,06:20:00,95.94
2019-04-01,06:30:00,95.96
2019-04-01,06:40:00,95.93
2019-04-01,06:50:00,95.9
2019-04-01,07:00:00,95.89
2019-04-01,07:10:00,95.85
2019-04-01,07:20:00,95.64
2019-04-01,07:30:00,95.25
2019-04-01,07:40:00,95.23
2019-04-01,07:50:00,95.25
2019-04-01,08:00:00,95.72
2019-04-01,08:10:00,95.24
2019-04-01,08:20:00,95.25
2019-04-01,08:30:00,95.27
2019-04-01,08:40:00,96.01
2019-04-01,08:50:00,96
2019-04-01,09:00:00,95.74
2019-04-01,09:10:00,95.42
2019-04-01,09:20:00,95.91
2019-04-01,09:30:00,95.81
2019-04-01,09:40:00,95.75
2019-04-01,09:50:00,95.83
2019-04-01,10:00:00,95.7
2019-04-01,10:10:00,95.72
2019-04-01,10:20:00,95.65
2019-04-01,10:30:00,95.17
2019-04-01,10:40:00,95.51
2019-04-01,10:50:00,95.9
2019-04-01,11:00:00,95.42
2019-04-01,11:10:00,95.43
2019-04-01,11:20:00,95.86
2019-04-01,11:30:00,95.88
2019-04-01,11:40:00,95.97
2019-04-01,11:50:00,95.91
2019-04-01,12:00:00,95.72
2019-04-01,12:10:00,95.88
2019-04-01,12:20:00,95.88
2019-04-01,12:30:00,95.87
2019-04-01,12:40:00,96
2019-04-01,12:50:00,95.97
2019-04-01,13:00:00,95.48
2019-04-01,13:10:00,95.96
2019-04-01,13:20:00,95.94
2019-04-01,13:30:00,95.67
2019-04-01,13:40:00,95.86
2019-04-01,13:50:00,95.88
2019-04-01,14:00:00,95.85
2019-04-01,14:10:00,94.92
2019-04-01,14:20:00,94.92
2019-04-01,14:30:00,95.97
2019-04-01,14:40:00,95.64
2019-04-01,14:50:00,95.57
2019-04-01,15:00:00,95.64
2019-04-01,15:10:00,95.35
2019-04-01,15:20:00,95.62
2019-04-01,15:30:00,95.59
2019-04-01,15:40:00,95.59
2019-04-01,15:50:00,95.66
2019-04-01,16:00:00,95.66
2019-04-01,16:10:00,95.61
2019-04-01,16:20:00,95.65
2019-04-01,16:30:00,95.6
2019-04-01,16:40:00,95.6
2019-04-01,16:50:00,95.62
2019-04-01,17:00:00,95.62
2019-04-01,17:10:00,95.97
2019-04-01,17:20:00,95.96
2019-04-01,17:30:00,95.66
2019-04-01,17:40:00,95.96
2019-04-01,17:50:00,95.97
2019-04-01,18:00:00,95.61
2019-04-01,18:10:00,95.96
2019-04-01,18:20:00,95.95
2019-04-01,18:30:00,95.96
2019-04-01,18:40:00,95.99
2019-04-01,18:50:00,95.67
2019-04-01,19:00:00,95.97
2019-04-01,19:10:00,95.96
2019-04-01,19:20:00,95.64
2019-04-01,19:30:00,95.64
2019-04-01,19:40:00,95.65
2019-04-01,19:50:00,95.66
2019-04-01,20:00:00,95.65
2019-04-01,20:10:00,95.65
2019-04-01,20:20:00,95.64
2019-04-01,20:30:00,95.62
2019-04-01,20:40:00,95.6
2019-04-01,20:50:00,95.59
2019-04-01,21:00:00,95.58
2019-04-01,21:10:00,95.59
2019-04-01,21:20:00,95.6
2019-04-01,21:30:00,95.73
2019-04-01,21:40:00,95.69
2019-04-01,21:50:00,95.69
2019-04-01,22:00:00,95.67
2019-04-01,22:10:00,95.67
2019-04-01,22:20:00,95.68
2019-04-01,22:30:00,95.68
2019-04-01,22:40:00,95.68
2019-04-01,22:50:00,95.68
2019-04-01,23:00:00,95.68
2019-04-01,23:10:00,95.67
2019-04-01,23:20:00,95.7
2019-04-01,23:30:00,95.7
2019-04-01,23:40:00,95.7
2019-04-01,23:50:00,95.7
2019-04-02,00:00:00,95.7
2019-04-02,00:10:00,95.67
2019-04-02,00:20:00,95.67
2019-04-02,00:30:00,95.68
2019-04-02,00:40:00,95.68
2019-04-02,00:50:00,95.7
2019-04-02,01:00:00,95.66
2019-04-02,01:10:00,95.66
2019-04-02,01:20:00,95.66
2019-04-02,01:30:00,95.66
2019-04-02,01:40:00,95.66
2019-04-02,01:50:00,95.66
2019-04-02,02:00:00,95.66
2019-04-02,02:10:00,95.65
2019-04-02,02:20:00,95.66
2019-04-02,02:30:00,95.66
2019-04-02,02:40:00,95.66
2019-04-02,02:50:00,95.66
2019-04-02,03:00:00,95.67
2019-04-02,03:10:00,95.67
2019-04-02,03:20:00,95.17
2019-04-02,03:30:00,95.18
2019-04-02,03:40:00,95.63
2019-04-02,03:50:00,95.74
2019-04-02,04:00:00,95.74
2019-04-02,04:10:00,95.74
2019-04-02,04:20:00,95.73
2019-04-02,04:30:00,95.94
2019-04-02,04:40:00,95.74
2019-04-02,04:50:00,95.74
2019-04-02,05:00:00,95.94
2019-04-02,05:10:00,95.97
2019-04-02,05:20:00,95.96
2019-04-02,05:30:00,95.75
2019-04-02,05:40:00,95.74
2019-04-02,05:50:00,95.75
2019-04-02,06:00:00,95.75
2019-04-02,06:10:00,95.73
2019-04-02,06:20:00,95.78
2019-04-02,06:30:00,95.38
2019-04-02,06:40:00,95.35
2019-04-02,06:50:00,95.2
2019-04-02,07:00:00,95.19
2019-04-02,07:10:00,95.19
2019-04-02,07:20:00,95.2
2019-04-02,07:30:00,95.8
2019-04-02,07:40:00,95.66
2019-04-02,07:50:00,95.72
2019-04-02,08:00:00,95.55
2019-04-02,08:10:00,95.55
2019-04-02,08:20:00,95.77
2019-04-02,08:30:00,95.79
2019-04-02,08:40:00,95.97
2019-04-02,08:50:00,95.68
2019-04-02,09:00:00,95.97
2019-04-02,09:10:00,95.61
2019-04-02,09:20:00,95.6
2019-04-02,09:30:00,95.61
2019-04-02,09:40:00,95.65
2019-04-02,09:50:00,95.61
2019-04-02,10:00:00,95.59
2019-04-02,10:10:00,95.6
2019-04-02,10:20:00,95.61
2019-04-02,10:30:00,95.61
2019-04-02,10:40:00,95.28
2019-04-02,10:50:00,95.58
2019-04-02,11:00:00,95.04
2019-04-02,11:10:00,95.04
2019-04-02,11:20:00,95.6
2019-04-02,11:30:00,95.58
2019-04-02,11:40:00,95.31
2019-04-02,11:50:00,95.06
2019-04-02,12:00:00,95.06
2019-04-02,12:10:00,95.55
2019-04-02,12:20:00,95.65
2019-04-02,12:30:00,95.6
2019-04-02,12:40:00,95.67
2019-04-02,12:50:00,95.51
2019-04-02,13:00:00,95.61
2019-04-02,13:10:00,95.88
2019-04-02,13:20:00,95.96
2019-04-02,13:30:00,95.97
2019-04-02,13:40:00,95.23
2019-04-02,13:50:00,95.2
2019-04-02,14:00:00,94.85
2019-04-02,14:10:00,94.74
2019-04-02,14:20:00,94.74
2019-04-02,14:30:00,94.37
2019-04-02,14:40:00,94.77
2019-04-02,14:50:00,95.13
2019-04-02,15:00:00,95.02
2019-04-02,15:10:00,95.05
2019-04-02,15:20:00,95.65
2019-04-02,15:30:00,95.61
2019-04-02,15:40:00,95.61
2019-04-02,15:50:00,95.63
2019-04-02,16:00:00,95.6
2019-04-02,16:10:00,95.25
2019-04-02,16:20:00,95.64
2019-04-02,16:30:00,95.29
2019-04-02,16:40:00,95.94
2019-04-02,16:50:00,95.92
2019-04-02,17:00:00,95.54
2019-04-02,17:10:00,95.57
2019-04-02,17:20:00,95.2
2019-04-02,17:30:00,95.22
2019-04-02,17:40:00,95.58
2019-04-02,17:50:00,95.23
2019-04-02,18:00:00,95.22
2019-04-02,18:10:00,95.57
2019-04-02,18:20:00,95.94
2019-04-02,18:30:00,95.94
2019-04-02,18:40:00,95.94
2019-04-02,18:50:00,95.94
2019-04-02,19:00:00,95.95
2019-04-02,19:10:00,95.94
2019-04-02,19:20:00,95.95
2019-04-02,19:30:00,95.94
2019-04-02,19:40:00,95.94
2019-04-02,19:50:00,95.57
2019-04-02,20:00:00,95.57
2019-04-02,20:10:00,95.57
2019-04-02,20:20:00,95.96
2019-04-02,20:30:00,95.67
2019-04-02,20:40:00,95.95
2019-04-02,20:50:00,95.96
2019-04-02,21:00:00,95.94
2019-04-02,21:10:00,95.94
2019-04-02,21:20:00,95.93
2019-04-02,21:30:00,95.93
2019-04-02,21:40:00,95.92
2019-04-02,21:50:00,95.92
2019-04-02,22:00:00,95.94
2019-04-02,22:10:00,95.9
2019-04-02,22:20:00,95.9
2019-04-02,22:30:00,95.9
2019-04-02,22:40:00,95.9
2019-04-02,22:50:00,95.63
2019-04-02,23:00:00,95.64
2019-04-02,23:10:00,95.62
2019-04-02,23:20:00,95.64
2019-04-02,23:30:00,95.65
2019-04-02,23:40:00,95.64
2019-04-02,23:50:00,94.34
2019-04-03,00:00:00,94.32
2019-04-03,00:10:00,94.32
2019-04-03,00:20:00,94.32
2019-04-03,00:30:00,94.33
2019-04-03,00:40:00,94.32
2019-04-03,00:50:00,94.32
2019-04-03,01:00:00,94.33
2019-04-03,01:10:00,94.34
2019-04-03,01:20:00,94.33
2019-04-03,01:30:00,94.33
2019-04-03,01:40:00,94.34
2019-04-03,01:50:00,94.32
2019-04-03,02:00:00,94.33
2019-04-03,02:10:00,94.33
2019-04-03,02:20:00,94.33
2019-04-03,02:30:00,94.33
2019-04-03,02:40:00,94.32
2019-04-03,02:50:00,94.33
2019-04-03,03:00:00,94.33
2019-04-03,03:10:00,94.33
2019-04-03,03:20:00,94.32
2019-04-03,03:30:00,94.32
2019-04-03,03:40:00,94.31
2019-04-03,03:50:00,94.32
2019-04-03,04:00:00,94.32
2019-04-03,04:10:00,94.32
2019-04-03,04:20:00,94.65
2019-04-03,04:30:00,94.35
2019-04-03,04:40:00,94.32
2019-04-03,04:50:00,94.33
2019-04-03,05:00:00,94.31
2019-04-03,05:10:00,94.32
2019-04-03,05:20:00,94.32
2019-04-03,05:30:00,94.34
2019-04-03,05:40:00,94.34
2019-04-03,05:50:00,94.34
2019-04-03,06:00:00,94.31
2019-04-03,06:10:00,94.34
2019-04-03,06:20:00,94.31
2019-04-03,06:30:00,94.31
2019-04-03,06:40:00,94.35
2019-04-03,06:50:00,94.33
2019-04-03,07:00:00,94.33
2019-04-03,07:10:00,94.37
2019-04-03,07:20:00,94.71
2019-04-03,07:30:00,94.73
2019-04-03,07:40:00,94.73
2019-04-03,07:50:00,94.73
2019-04-03,08:00:00,95.05
2019-04-03,08:10:00,95.04
2019-04-03,08:20:00,95.38
2019-04-03,08:30:00,95.33
2019-04-03,08:40:00,95.33
2019-04-03,08:50:00,95.03
2019-04-03,09:00:00,95.03
2019-04-03,09:10:00,95.03
2019-04-03,09:20:00,95.03
2019-04-03,09:30:00,94.77
2019-04-03,09:40:00,94.35
2019-04-03,09:50:00,94.33
2019-04-03,10:00:00,94.35
2019-04-03,10:10:00,94.34
2019-04-03,10:20:00,94.36
2019-04-03,10:30:00,94.35
2019-04-03,10:40:00,94.36
2019-04-03,10:50:00,94.33
2019-04-03,11:00:00,94.32
2019-04-03,11:10:00,94.32
2019-04-03,11:20:00,94.33
2019-04-03,11:30:00,94.33
2019-04-03,11:40:00,94.33
2019-04-03,11:50:00,94.34
2019-04-03,12:00:00,94.34
2019-04-03,12:10:00,94.34
2019-04-03,12:20:00,94.35
2019-04-03,12:30:00,94.33
2019-04-03,12:40:00,94.33
2019-04-03,12:50:00,94.35
2019-04-03,13:00:00,94.59
2019-04-03,13:10:00,94.59
2019-04-03,13:20:00,94.62
2019-04-03,13:30:00,94.6
2019-04-03,13:40:00,94.94
2019-04-03,13:50:00,94.35
2019-04-03,14:00:00,94.35
2019-04-03,14:10:00,94.34
2019-04-03,14:20:00,94.34
2019-04-03,14:30:00,94.35
2019-04-03,14:40:00,94.35
2019-04-03,14:50:00,94.34
2019-04-03,15:00:00,94.34
2019-04-03,15:10:00,95.6
2019-04-03,15:20:00,95.14
2019-04-03,15:30:00,96
2019-04-03,15:40:00,95.95
2019-04-03,15:50:00,95.95
2019-04-03,16:00:00,95.52
2019-04-03,16:10:00,95.96
2019-04-03,16:20:00,95.48
2019-04-03,16:30:00,95.95
2019-04-03,16:40:00,95.19
2019-04-03,16:50:00,95.38
2019-04-03,17:00:00,96.01
2019-04-03,17:10:00,96.02
2019-04-03,17:20:00,96.01
2019-04-03,17:30:00,96.02
2019-04-03,17:40:00,95.55
2019-04-03,17:50:00,95.55
2019-04-03,18:00:00,95.95
2019-04-03,18:10:00,95.91
2019-04-03,18:20:00,96.05
2019-04-03,18:30:00,96.03
2019-04-03,18:40:00,96.02
2019-04-03,18:50:00,96.04
2019-04-03,19:00:00,96.05
2019-04-03,19:10:00,95.57
2019-04-03,19:20:00,95.56
2019-04-03,19:30:00,95.56
2019-04-03,19:40:00,95.56
2019-04-03,19:50:00,95.56
2019-04-03,20:00:00,95.55
2019-04-03,20:10:00,95.55
2019-04-03,20:20:00,95.56
2019-04-03,20:30:00,95.56
2019-04-03,20:40:00,95.57
2019-04-03,20:50:00,95.56
2019-04-03,21:00:00,95.57
2019-04-03,21:10:00,95.56
2019-04-03,21:20:00,95.56
2019-04-03,21:30:00,95.76
2019-04-03,21:40:00,95.78
2019-04-03,21:50:00,95.77
2019-04-03,22:00:00,95.75
2019-04-03,22:10:00,95.73
2019-04-03,22:20:00,96.04
2019-04-03,22:30:00,95.61
2019-04-03,22:40:00,96.08
2019-04-03,22:50:00,96.07
2019-04-03,23:00:00,96.07
2019-04-03,23:10:00,96.07
2019-04-03,23:20:00,96.07
2019-04-03,23:30:00,96.07
2019-04-03,23:40:00,96.07
2019-04-03,23:50:00,95.85
2019-04-04,00:00:00,95.51
2019-04-04,00:10:00,95.84
2019-04-04,00:20:00,95.84
2019-04-04,00:30:00,95.83
2019-04-04,00:40:00,95.51
2019-04-04,00:50:00,95.84
2019-04-04,01:00:00,95.95
2019-04-04,01:10:00,95.94
2019-04-04,01:20:00,95.95
2019-04-04,01:30:00,95.89
2019-04-04,01:40:00,95.41
2019-04-04,01:50:00,95.41
2019-04-04,02:00:00,95.43
2019-04-04,02:10:00,95.42
2019-04-04,02:20:00,95.43
2019-04-04,02:30:00,95.58
2019-04-04,02:40:00,95.18
2019-04-04,02:50:00,95.15
2019-04-04,03:00:00,95.15
2019-04-04,03:10:00,95.16
2019-04-04,03:20:00,95.17
2019-04-04,03:30:00,95.2
2019-04-04,03:40:00,95.19
2019-04-04,03:50:00,95.19
2019-04-04,04:00:00,95.19
2019-04-04,04:10:00,95.19
2019-04-04,04:20:00,95.03
2019-04-04,04:30:00,95.02
2019-04-04,04:40:00,94.9
2019-04-04,04:50:00,94.9
2019-04-04,05:00:00,94.92
2019-04-04,05:10:00,94.91
2019-04-04,05:20:00,94.9
2019-04-04,05:30:00,94.54
2019-04-04,05:40:00,94.55
2019-04-04,05:50:00,94.55
2019-04-04,06:00:00,94.55
2019-04-04,06:10:00,94.55
2019-04-04,06:20:00,94.55
2019-04-04,06:30:00,94.55
2019-04-04,06:40:00,94.55
2019-04-04,06:50:00,94.55
2019-04-04,07:00:00,94.55
2019-04-04,07:10:00,94.55
2019-04-04,07:20:00,94.55
2019-04-04,07:30:00,94.55
2019-04-04,07:40:00,94.55
2019-04-04,07:50:00,94.55
2019-04-04,08:00:00,94.91
2019-04-04,08:10:00,94.91
2019-04-04,08:20:00,95.09
2019-04-04,08:30:00,95.58
2019-04-04,08:40:00,95.92
2019-04-04,08:50:00,95.92
2019-04-04,09:00:00,95.93
2019-04-04,09:10:00,95.93
2019-04-04,09:20:00,95.93
2019-04-04,09:30:00,95.92
2019-04-04,09:40:00,95.93
2019-04-04,09:50:00,95.92
2019-04-04,10:00:00,95.56
2019-04-04,10:10:00,95.92
2019-04-04,10:20:00,95.92
2019-04-04,10:30:00,95.93
2019-04-04,10:40:00,95.93
2019-04-04,10:50:00,95.92
2019-04-04,11:00:00,95.52
2019-04-04,11:10:00,95.53
2019-04-04,11:20:00,95.59
2019-04-04,11:30:00,95.17
2019-04-04,11:40:00,95.58
2019-04-04,11:50:00,95.4
2019-04-04,12:00:00,94.95
2019-04-04,12:10:00,94.98
2019-04-04,12:20:00,94.99
2019-04-04,12:30:00,94.99
2019-04-04,12:40:00,95.16
2019-04-04,12:50:00,95.62
2019-04-04,13:00:00,95.62
2019-04-04,13:10:00,95.92
2019-04-04,13:20:00,95.92
2019-04-04,13:30:00,95.85
2019-04-04,13:40:00,95.2
2019-04-04,13:50:00,95.23
2019-04-04,14:00:00,95.17
2019-04-04,14:10:00,95.17
2019-04-04,14:20:00,95.18
2019-04-04,14:30:00,95.19
2019-04-04,14:40:00,95.2
2019-04-04,14:50:00,95.17
2019-04-04,15:00:00,95.2
2019-04-04,15:10:00,95.58
2019-04-04,15:20:00,95.15
2019-04-04,15:30:00,95.15
2019-04-04,15:40:00,94.95
2019-04-04,15:50:00,94.83
2019-04-04,16:00:00,94.83
2019-04-04,16:10:00,94.37
2019-04-04,16:20:00,94.4
2019-04-04,16:30:00,94.4
2019-04-04,16:40:00,94.28
2019-04-04,16:50:00,95.16
2019-04-04,17:00:00,95.54
2019-04-04,17:10:00,94.67
2019-04-04,17:20:00,94.74
2019-04-04,17:30:00,95.14
2019-04-04,17:40:00,95.15
2019-04-04,17:50:00,95.15
2019-04-04,18:00:00,95.6
2019-04-04,18:10:00,94.71
2019-04-04,18:20:00,94.73
2019-04-04,18:30:00,94.71
2019-04-04,18:40:00,94.73
2019-04-04,18:50:00,94.74
2019-04-04,19:00:00,94.73
2019-04-04,19:10:00,94.74
2019-04-04,19:20:00,94.75
2019-04-04,19:30:00,94.76
2019-04-04,19:40:00,94.74
2019-04-04,19:50:00,94.74
2019-04-04,20:00:00,94.74
2019-04-04,20:10:00,94.74
2019-04-04,20:20:00,94.75
2019-04-04,20:30:00,95.14
2019-04-04,20:40:00,95.14
2019-04-04,20:50:00,95.19
2019-04-04,21:00:00,95.17
2019-04-04,21:10:00,95.19
2019-04-04,21:20:00,95.18
2019-04-04,21:30:00,95.17
2019-04-04,21:40:00,95.17
2019-04-04,21:50:00,95.52
2019-04-04,22:00:00,95.52
2019-04-04,22:10:00,95.53
2019-04-04,22:20:00,95.53
2019-04-04,22:30:00,95.52
2019-04-04,22:40:00,95.52
2019-04-04,22:50:00,95.53
2019-04-04,23:00:00,95.53
2019-04-04,23:10:00,95.53
2019-04-04,23:20:00,95.53
2019-04-04,23:30:00,95.95
2019-04-04,23:40:00,95.95
2019-04-04,23:50:00,95.98
2019-04-05,00:00:00,95.96
2019-04-05,00:10:00,95.99
2019-04-05,00:20:00,95.98
2019-04-05,00:30:00,95.96
2019-04-05,00:40:00,95.96
2019-04-05,00:50:00,95.96
2019-04-05,01:00:00,95.78
2019-04-05,01:10:00,95.94
2019-04-05,01:20:00,95.96
2019-04-05,01:30:00,95.95
2019-04-05,01:40:00,95.93
2019-04-05,01:50:00,95.95
2019-04-05,02:00:00,95.93
2019-04-05,02:10:00,95.95
2019-04-05,02:20:00,95.95
2019-04-05,02:30:00,95.13
2019-04-05,02:40:00,95.13
2019-04-05,02:50:00,95.13
2019-04-05,03:00:00,95.4
2019-04-05,03:10:00,95.13
2019-04-05,03:20:00,95.12
2019-04-05,03:30:00,95.11
2019-04-05,03:40:00,95.12
2019-04-05,03:50:00,95.44
2019-04-05,04:00:00,95.45
2019-04-05,04:10:00,95.44
2019-04-05,04:20:00,95.47
2019-04-05,04:30:00,95.86
2019-04-05,04:40:00,95.87
2019-04-05,04:50:00,95.91
2019-04-05,05:00:00,95.48
2019-04-05,05:10:00,95.91
2019-04-05,05:20:00,95.49
2019-04-05,05:30:00,95.52
2019-04-05,05:40:00,95.12
2019-04-05,05:50:00,95.12
2019-04-05,06:00:00,95.12
2019-04-05,06:10:00,95.12
2019-04-05,06:20:00,95.12
2019-04-05,06:30:00,95.17
2019-04-05,06:40:00,95.52
2019-04-05,06:50:00,95.16
2019-04-05,07:00:00,95.54
2019-04-05,07:10:00,95.51
2019-04-05,07:20:00,95.52
2019-04-05,07:30:00,95.43
2019-04-05,07:40:00,95.99
2019-04-05,07:50:00,95.93
2019-04-05,08:00:00,95.92
2019-04-05,08:10:00,95.89
2019-04-05,08:20:00,95.93
2019-04-05,08:30:00,96.03
2019-04-05,08:40:00,96.08
2019-04-05,08:50:00,95.56
2019-04-05,09:00:00,95.53
2019-04-05,09:10:00,95.54
2019-04-05,09:20:00,95.58
2019-04-05,09:30:00,95.58
2019-04-05,09:40:00,95.94
2019-04-05,09:50:00,95.82
2019-04-05,10:00:00,95.8
2019-04-05,10:10:00,95.83
2019-04-05,10:20:00,95.53
2019-04-05,10:30:00,95.5
2019-04-05,10:40:00,95.51
2019-04-05,10:50:00,95.52
2019-04-05,11:00:00,95.5
2019-04-05,11:10:00,95.49
2019-04-05,11:20:00,94.72
2019-04-05,11:30:00,95.18
2019-04-05,11:40:00,95.17
2019-04-05,11:50:00,95.62
2019-04-05,12:00:00,95.19
2019-04-05,12:10:00,95.67
2019-04-05,12:20:00,95.5
2019-04-05,12:30:00,95.39
2019-04-05,12:40:00,95.2
2019-04-05,12:50:00,95.18
2019-04-05,13:00:00,95.2
2019-04-05,13:10:00,94.82
2019-04-05,13:20:00,95.18
2019-04-05,13:30:00,95.18
2019-04-05,13:40:00,95.93
2019-04-05,13:50:00,96.14
2019-04-05,14:00:00,96.14
2019-04-05,14:10:00,95.53
2019-04-05,14:20:00,95.52
2019-04-05,14:30:00,95.92
2019-04-05,14:40:00,95.18
2019-04-05,14:50:00,95.33
2019-04-05,15:00:00,94.96
2019-04-05,15:10:00,95.04
2019-04-05,15:20:00,95.98
2019-04-05,15:30:00,95.96
2019-04-05,15:40:00,95.96
2019-04-05,15:50:00,95.84
2019-04-05,16:00:00,95.52
2019-04-05,16:10:00,-
2019-04-05,16:20:00,-
2019-04-05,16:30:00,-
2019-04-05,16:40:00,-
2019-04-05,16:50:00,-
2019-04-05,17:00:00,-
2019-04-05,17:10:00,-
2019-04-05,17:20:00,-
2019-04-05,17:30:00,95.09
2019-04-05,17:40:00,95.11
2019-04-05,17:50:00,95.11
2019-04-05,18:00:00,94.76
2019-04-05,18:10:00,94.74
2019-04-05,18:20:00,94.75
2019-04-05,18:30:00,94.74
2019-04-05,18:40:00,94.73
2019-04-05,18:50:00,94.72
2019-04-05,19:00:00,95.09
2019-04-05,19:10:00,95.1
2019-04-05,19:20:00,95.45
2019-04-05,19:30:00,95.11
2019-04-05,19:40:00,95.77
2019-04-05,19:50:00,96.18
2019-04-05,20:00:00,95.83
2019-04-05,20:10:00,95.86
2019-04-05,20:20:00,95.86
2019-04-05,20:30:00,95.9
2019-04-05,20:40:00,96.16
2019-04-05,20:50:00,95.91
2019-04-05,21:00:00,96.16
2019-04-05,21:10:00,96.16
2019-04-05,21:20:00,96.16
2019-04-05,21:30:00,96.16
2019-04-05,21:40:00,96.14
2019-04-05,21:50:00,96.17
2019-04-05,22:00:00,96.17
2019-04-05,22:10:00,96.17
2019-04-05,22:20:00,96.18
2019-04-05,22:30:00,96.16
2019-04-05,22:40:00,96.16
2019-04-05,22:50:00,96.16
2019-04-05,23:00:00,96.15
2019-04-05,23:10:00,96.15
2019-04-05,23:20:00,96.15
2019-04-05,23:30:00,96.16
2019-04-05,23:40:00,95.92
2019-04-05,23:50:00,95.94
2019-04-06,00:00:00,95.92
2019-04-06,00:10:00,96.14
2019-04-06,00:20:00,95.79
2019-04-06,00:30:00,96.14
2019-04-06,00:40:00,95.49
2019-04-06,00:50:00,95.87
2019-04-06,01:00:00,95.86
2019-04-06,01:10:00,95.77
2019-04-06,01:20:00,94.9
2019-04-06,01:30:00,94.9
2019-04-06,01:40:00,94.9
2019-04-06,01:50:00,94.89
2019-04-06,02:00:00,94.89
2019-04-06,02:10:00,94.89
2019-04-06,02:20:00,94.88
2019-04-06,02:30:00,94.89
2019-04-06,02:40:00,94.88
2019-04-06,02:50:00,94.88
2019-04-06,03:00:00,94.89
2019-04-06,03:10:00,94.89
2019-04-06,03:20:00,94.88
2019-04-06,03:30:00,94.88
2019-04-06,03:40:00,94.88
2019-04-06,03:50:00,94.88
2019-04-06,04:00:00,94.88
2019-04-06,04:10:00,94.88
2019-04-06,04:20:00,94.88
2019-04-06,04:30:00,94.88
2019-04-06,04:40:00,94.88
2019-04-06,04:50:00,94.88
2019-04-06,05:00:00,94.88
2019-04-06,05:10:00,94.88
2019-04-06,05:20:00,94.88
2019-04-06,05:30:00,94.38
2019-04-06,05:40:00,94.41
2019-04-06,05:50:00,94.41
2019-04-06,06:00:00,94.41
2019-04-06,06:10:00,94.41
2019-04-06,06:20:00,94.89
2019-04-06,06:30:00,94.9
2019-04-06,06:40:00,94.9
2019-04-06,06:50:00,94.9
2019-04-06,07:00:00,94.9
2019-04-06,07:10:00,94.74
2019-04-06,07:20:00,94.72
2019-04-06,07:30:00,94.81
2019-04-06,07:40:00,95.18
2019-04-06,07:50:00,94.92
2019-04-06,08:00:00,94.9
2019-04-06,08:10:00,94.91
2019-04-06,08:20:00,94.93
2019-04-06,08:30:00,94.93
2019-04-06,08:40:00,95.06
2019-04-06,08:50:00,94.62
2019-04-06,09:00:00,95.56
2019-04-06,09:10:00,95.1
2019-04-06,09:20:00,95.28
2019-04-06,09:30:00,95.1
2019-04-06,09:40:00,95.15
2019-04-06,09:50:00,95.12
2019-04-06,10:00:00,94.6
2019-04-06,10:10:00,95.18
2019-04-06,10:20:00,95.21
2019-04-06,10:30:00,94.98
2019-04-06,10:40:00,94.57
2019-04-06,10:50:00,94.58
2019-04-06,11:00:00,94.58
2019-04-06,11:10:00,94.57
2019-04-06,11:20:00,94.57
2019-04-06,11:30:00,94.59
2019-04-06,11:40:00,94.59
2019-04-06,11:50:00,94.59
2019-04-06,12:00:00,94.61
2019-04-06,12:10:00,94.63
2019-04-06,12:20:00,94.62
2019-04-06,12:30:00,94.62
2019-04-06,12:40:00,94.46
2019-04-06,12:50:00,94.42
2019-04-06,13:00:00,94.42
2019-04-06,13:10:00,94.42
2019-04-06,13:20:00,94.42
2019-04-06,13:30:00,94.59
2019-04-06,13:40:00,94.59
2019-04-06,13:50:00,94.59
2019-04-06,14:00:00,94.59
2019-04-06,14:10:00,95.13
2019-04-06,14:20:00,95.5
2019-04-06,14:30:00,95.52
2019-04-06,14:40:00,95.5
2019-04-06,14:50:00,95.08
2019-04-06,15:00:00,95.79
2019-04-06,15:10:00,94.38
2019-04-06,15:20:00,95.07
2019-04-06,15:30:00,94.83
2019-04-06,15:40:00,94.32
2019-04-06,15:50:00,94.31
2019-04-06,16:00:00,94.58
2019-04-06,16:10:00,94.57
2019-04-06,16:20:00,94.37
2019-04-06,16:30:00,94.55
2019-04-06,16:40:00,94.55
2019-04-06,16:50:00,94.7
2019-04-06,17:00:00,94.68
2019-04-06,17:10:00,94.53
2019-04-06,17:20:00,94.71
2019-04-06,17:30:00,94.48
2019-04-06,17:40:00,94.49
2019-04-06,17:50:00,94.5
2019-04-06,18:00:00,94.5
2019-04-06,18:10:00,94.49
2019-04-06,18:20:00,94.51
2019-04-06,18:30:00,94.49
2019-04-06,18:40:00,94.5
2019-04-06,18:50:00,94.49
2019-04-06,19:00:00,94.47
2019-04-06,19:10:00,94.47
2019-04-06,19:20:00,94.47
2019-04-06,19:30:00,94.47
2019-04-06,19:40:00,94.91
2019-04-06,19:50:00,94.9
2019-04-06,20:00:00,94.72
2019-04-06,20:10:00,94.72
2019-04-06,20:20:00,94.71
2019-04-06,20:30:00,94.71
2019-04-06,20:40:00,94.71
2019-04-06,20:50:00,94.71
2019-04-06,21:00:00,95.54
2019-04-06,21:10:00,95.54
2019-04-06,21:20:00,95.53
2019-04-06,21:30:00,95.53
2019-04-06,21:40:00,95.55
2019-04-06,21:50:00,95.53
2019-04-06,22:00:00,95.52
2019-04-06,22:10:00,95.52
2019-04-06,22:20:00,95.51
2019-04-06,22:30:00,95.5
2019-04-06,22:40:00,95.5
2019-04-06,22:50:00,95.51
2019-04-06,23:00:00,95.47
2019-04-06,23:10:00,95.48
2019-04-06,23:20:00,95.48
2019-04-06,23:30:00,95.48
2019-04-06,23:40:00,95.5
2019-04-06,23:50:00,95.5
2019-04-07,00:00:00,95.5
2019-04-07,00:10:00,95.49
2019-04-07,00:20:00,95.5
2019-04-07,00:30:00,95.5
2019-04-07,00:40:00,95.53
2019-04-07,00:50:00,95.5
2019-04-07,01:00:00,95.96
2019-04-07,01:10:00,95.96
2019-04-07,01:20:00,95.95
2019-04-07,01:30:00,95.95
2019-04-07,01:40:00,95.94
2019-04-07,01:50:00,95.94
2019-04-07,02:00:00,95.95
2019-04-07,02:10:00,95.94
2019-04-07,02:20:00,95.95
2019-04-07,02:30:00,95.94
2019-04-07,02:40:00,95.93
2019-04-07,02:50:00,95.95
2019-04-07,03:00:00,95.94
2019-04-07,03:10:00,95.95
2019-04-07,03:20:00,95.62
2019-04-07,03:30:00,95.95
2019-04-07,03:40:00,95.6
2019-04-07,03:50:00,95.74
2019-04-07,04:00:00,95.75
2019-04-07,04:10:00,95.97
2019-04-07,04:20:00,95.95
2019-04-07,04:30:00,95.93
2019-04-07,04:40:00,95.51
2019-04-07,04:50:00,95.51
2019-04-07,05:00:00,95.51
2019-04-07,05:10:00,95.67
2019-04-07,05:20:00,95.7
2019-04-07,05:30:00,95.7
2019-04-07,05:40:00,95.69
2019-04-07,05:50:00,95.69
2019-04-07,06:00:00,95.68
2019-04-07,06:10:00,95.7
2019-04-07,06:20:00,95.68
2019-04-07,06:30:00,95.68
2019-04-07,06:40:00,95.71
2019-04-07,06:50:00,96.22
2019-04-07,07:00:00,96.22
2019-04-07,07:10:00,96.22
2019-04-07,07:20:00,96.22
2019-04-07,07:30:00,96.22
2019-04-07,07:40:00,96.22
2019-04-07,07:50:00,96.22
2019-04-07,08:00:00,95.97
2019-04-07,08:10:00,95.93
2019-04-07,08:20:00,95.48
2019-04-07,08:30:00,95.62
2019-04-07,08:40:00,95.48
2019-04-07,08:50:00,95.48
2019-04-07,09:00:00,94.31
2019-04-07,09:10:00,94.38
2019-04-07,09:20:00,94.37
2019-04-07,09:30:00,94.4
2019-04-07,09:40:00,94.41
2019-04-07,09:50:00,94.37
2019-04-07,10:00:00,94.39
2019-04-07,10:10:00,94.38
2019-04-07,10:20:00,94.42